Orbital Elements at Epoch 2459200.5 (2020-Dec-17.0) TDB
Reference: JPL 15 (heliocentric ecliptic J2000)
Element | Value | Uncertainty (1-sigma) | Units |
e | .1925599238714716 | 5.5317e-08 | |
a | 2.569264810711299 | 1.7278e-08 | au |
q | 2.074527374355081 | 1.4823e-07 | au |
i | 3.603068916167802 | 4.1706e-06 | deg |
node | 75.28989658168389 | 9.2153e-05 | deg |
peri | 295.4287962368572 | 9.3299e-05 | deg |
M | 250.7540244311658 | 2.12e-05 | deg |
tp | 2459656.972560665023 (2022-Mar-18.47256067) | 9.2608e-05 | TDB |
period | 1504.221285807149 4.12 | 1.5173e-05 4.154e-08 | d yr |
n | .2393264896572899 | 2.4141e-09 | deg/d |
Q | 3.064002247067517 | 2.0605e-08 | au |
|
| | Orbit Determination Parameters
Additional Information
|